This is the latest recevied weather packets stored in our database for station/object OE3MHU-13. If no packets are shown the sender has not sent any weather packets the latest 10 day(s).
| Time | Temp. | Humidity | Pressure | Rain* | Wind** | Luminosity | Snow |
|---|---|---|---|---|---|---|---|
| 1777287629 | 18.89° C | 35% | 1024 hPa | 0 mm | - | - | - |
| 1777287327 | 18.89° C | 36% | 1024.1 hPa | 0 mm | - | - | - |
| 1777287026 | 18.33° C | 37% | 1024 hPa | 0 mm | - | - | - |
| 1777286728 | 17.22° C | 38% | 1024.1 hPa | 0 mm | - | - | - |
| 1777286425 | 16.67° C | 39% | 1024.2 hPa | 0 mm | - | - | - |
| 1777286125 | 17.22° C | 38% | 1024.2 hPa | 0 mm | - | - | - |
| 1777285825 | 17.22° C | 38% | 1024.2 hPa | 0 mm | - | - | - |
| 1777285525 | 17.22° C | 37% | 1024.3 hPa | 0 mm | - | - | - |
| 1777285226 | 16.67° C | 39% | 1024.4 hPa | 0 mm | - | - | - |
| 1777284925 | 17.22° C | 38% | 1024.3 hPa | 0 mm | - | - | - |
| 1777284625 | 17.78° C | 38% | 1024.3 hPa | 0 mm | - | - | - |
| 1777284325 | 16.67° C | 39% | 1024.4 hPa | 0 mm | - | - | - |
| 1777284023 | 16.67° C | 38% | 1024.3 hPa | 0 mm | - | - | - |
| 1777282792 | 16.11° C | 38% | 1024.6 hPa | 0 mm | - | - | - |
| 1777282179 | 16.67° C | 39% | 1024.8 hPa | 0 mm | - | - | - |
| 1777281873 | 16.67° C | 40% | 1024.9 hPa | 0 mm | - | - | - |
| 1777281567 | 16.11° C | 39% | 1024.9 hPa | 0 mm | - | - | - |
| 1777281262 | 16.11° C | 40% | 1025 hPa | 0 mm | - | - | - |
| 1777280955 | 15.56° C | 39% | 1025 hPa | 0 mm | - | - | - |
| 1777280649 | 16.11° C | 40% | 1025 hPa | 0 mm | - | - | - |
| 1777280036 | 15° C | 41% | 1025 hPa | 0 mm | - | - | - |
| 1777279425 | 14.44° C | 42% | 1025.1 hPa | 0 mm | - | - | - |
| 1777279119 | 14.44° C | 41% | 1025.1 hPa | 0 mm | - | - | - |
| 1777278816 | 14.44° C | 42% | 1025.1 hPa | 0 mm | - | - | - |
| 1777278507 | 14.44° C | 42% | 1025.1 hPa | 0 mm | - | - | - |
* Rain latest hour (hover to see other rain measurements)
** Current wind speed in m/s (hover to see current wind gust speed)